Wind_Speed
14 19 21 19 18 19 20 18 16 12 9 10 8 8 6 5 6 5 6 5 6 6 7 9 17 24 28 27 26 26 25 22 23 21 20 20 11 10 12 16 17 17 16
22 21 19 18 18 17 17 15 13 10 10 10 11 9 9 6 7 6 6 6 5 6 5 5 6 9 15 17 15 20 31 29 26 27 27 25 24 22 23 21 20 19 16
25 23 21 21 20 18 16 14 13 12 12 13 12 10 10 11 12 10 10 7 7 7 5 5 5 5 7 9 13 15 17 19 21 20 22 27 28 29 30 25 22 18 16
28 27 25 25 23 20 19 18 17 14 13 13 13 12 11 12 11 10 12 11 10 8 9 7 7 8 8 9 10 9 11 13 14 16 16 15 19 22 24 21 19 18 15
22 27 28 26 26 25 25 23 20 19 17 16 15 14 13 13 12 12 11 11 12 11 11 11 12 11 10 10 12 13 10 10 12 12 11 11 11 14 16 15 16 16 13
20 28 36 31 27 27 28 26 26 22 21 20 19 17 15 14 13 13 13 13 14 14 14 14 13 13 13 12 12 13 14 13 14 14 13 12 11 14 16 18 18 18 14
24 19 30 31 31 36 31 28 26 24 25 24 23 22 20 19 17 17 16 17 17 16 17 17 17 16 15 14 15 15 15 15 15 16 15 14 15 15 18 20 21 21 18
21 11 14 12 30 24 23 31 24 24 25 25 24 25 24 23 22 21 22 22 21 19 18 18 19 19 19 20 20 20 19 19 19 20 20 18 19 18 21 23 24 23 21
19 12 10 6 9 6 10 18 20 18 22 24 25 25 25 26 26 25 26 26 26 25 24 22 21 21 20 23 26 26 26 25 25 25 25 26 26 26 27 28 27 27 25
12 12 14 18 14 20 23 25 26 29 24 24 31 31 30 31 29 29 27 28 28 28 26 25 25 25 24 24 26 27 29 27 28 30 30 30 30 29 30 31 31 32 31
13 15 14 13 11 15 16 17 15 16 23 29 31 32 32 33 31 31 29 29 30 31 29 26 28 29 28 28 28 27 26 29 30 31 31 31 30 30 29 29 31 34 36
20 20 20 21 21 23 25 26 22 21 20 19 19 19 24 28 29 34 34 33 33 32 30 30 30 30 30 31 32 31 31 32 32 30 31 30 31 30 28 28 30 32 34
27 27 28 29 30 30 30 30 32 32 29 27 26 27 25 22 23 29 34 36 36 36 36 36 34 31 28 27 28 29 30 32 34 34 31 29 29 31 32 28 28 30 33
29 29 29 29 29 29 29 31 32 33 34 34 34 34 33 30 30 31 29 30 33 37 40 41 40 39 38 37 34 33 31 31 32 34 33 31 30 32 34 32 33 31 33
26 27 27 27 27 27 28 29 30 32 31 30 32 35 38 38 39 39 38 36 36 36 35 35 35 36 38 39 39 38 39 39 41 40 37 36 35 33 34 33 34 37 38
23 24 25 26 26 25 25 26 26 26 29 31 33 34 34 36 36 39 42 44 44 44 43 42 41 41 40 39 37 37 39 40 42 46 46 47 45 41 41 38 34 39 40
21 21 23 24 24 23 22 20 21 23 22 23 25 27 27 28 29 29 31 34 37 40 42 46 49 48 48 47 45 42 41 39 42 45 47 48 48 47 45 44 44 41 36
18 19 19 20 22 23 24 24 24 24 24 26 29 30 32 33 34 34 35 35 36 37 39 39 41 44 47 51 52 51 48 45 43 42 43 44 43 42 42 43 43 44 48
16 17 18 19 21 23 24 26 28 29 30 31 32 33 36 37 39 40 43 44 44 43 44 45 45 45 45 47 50 53 54 51 48 47 46 44 43 44 46 46 47 48 46
18 20 21 22 23 24 25 25 26 28 30 31 33 35 37 38 40 42 44 46 49 51 52 52 52 52 52 51 50 53 54 55 55 52 50 49 47 45 45 43 44 46 42
18 19 20 20 21 22 23 24 25 26 28 31 33 35 38 41 43 45 47 49 51 54 56 57 58 59 58 59 59 58 57 56 57 58 57 54 51 47 46 44 40 34 42
17 17 17 18 19 19 20 22 25 28 31 34 36 39 41 45 48 50 52 53 53 54 56 60 61 62 63 63 63 64 64 63 61 60 62 60 58 53 49 46 43 39 36
16 17 17 17 19 20 22 24 27 30 34 38 41 44 48 52 57 59 59 58 58 59 60 62 63 64 65 66 68 68 67 68 68 66 64 65 63 59 54 52 46 45 45
15 14 16 18 20 23 26 28 31 34 38 42 46 51 54 57 58 59 60 60 61 60 60 62 63 64 66 67 69 71 71 70 69 69 69 66 66 65 60 56 53 48 44
18 16 17 20 22 25 28 30 32 36 39 44 48 51 53 54 55 56 58 57 57 57 57 57 58 60 62 65 66 68 71 71 71 68 68 67 65 65 66 62 56 54 49
22 18 18 21 25 28 30 32 35 37 39 42 46 50 50 48 47 47 49 50 51 52 53 53 54 55 57 59 62 64 64 66 66 65 65 65 65 63 64 64 60 58 54
Wind_Direction
221 219 223 221 220 222 232 235 235 225 219 215 209 207 219 206 231 214 201 185 214 220 212 217 220 229 232 239 245 241 245 253 247 244 252 262 265 281 296 300 306 308 310
204 205 216 226 223 223 222 231 233 222 219 215 214 216 209 220 239 254 237 217 197 217 205 226 228 229 229 235 242 242 240 255 256 256 254 260 266 275 286 292 298 297 302
204 206 208 214 216 215 217 220 226 226 221 228 234 227 226 230 229 230 244 228 224 225 226 225 244 247 248 253 249 240 245 250 259 265 259 257 261 269 277 282 284 283 290
210 212 214 219 220 222 225 224 224 227 224 223 226 230 229 231 235 232 243 252 250 245 242 242 246 246 245 258 268 262 255 256 261 267 269 267 264 265 271 275 270 278 277
215 225 219 222 223 221 221 225 228 232 235 232 233 232 231 233 239 242 240 241 251 253 249 239 229 232 242 256 261 267 266 273 277 278 277 269 263 265 269 274 279 279 285
220 233 219 213 222 229 224 228 231 234 238 243 245 246 239 238 237 242 249 252 249 251 253 252 244 235 232 240 241 242 253 259 266 272 275 279 280 284 284 286 290 292 296
233 234 227 216 222 226 231 236 232 228 236 240 246 248 255 250 248 243 250 249 253 251 251 253 258 259 258 252 250 249 254 259 262 264 264 267 271 279 281 284 289 292 297
236 242 238 253 215 232 237 222 222 235 241 241 243 247 247 250 255 257 258 257 257 256 255 253 251 254 259 265 266 265 265 264 264 269 270 270 271 271 274 277 279 282 286
220 203 190 181 204 182 227 223 251 245 242 253 258 253 253 251 247 250 256 260 262 263 266 263 260 258 257 255 258 257 256 256 263 264 262 263 266 269 271 272 277 283 287
221 230 233 230 218 248 264 263 248 244 243 248 252 257 256 256 255 252 254 257 259 261 264 265 268 269 270 267 269 273 271 272 267 267 270 272 273 274 277 281 284 283 281
226 232 239 241 237 248 264 261 257 246 245 249 256 254 255 257 257 254 251 255 262 264 264 262 268 266 267 270 269 267 272 275 277 277 279 279 278 282 284 285 286 288 288
236 233 235 238 239 241 244 258 263 261 259 254 249 255 254 257 256 251 252 255 257 258 260 268 276 269 265 264 265 266 269 269 273 275 279 283 286 286 286 283 283 285 286
253 251 248 248 248 246 247 249 254 259 262 263 265 265 264 263 261 256 254 254 256 256 259 266 270 269 268 270 270 267 266 269 268 269 273 276 278 281 281 281 284 286 284
253 254 257 257 256 256 256 257 257 255 257 258 260 259 261 262 261 261 260 261 262 261 263 267 267 268 268 269 272 268 265 271 272 272 273 276 278 278 279 278 281 281 280
253 254 256 259 261 261 259 258 259 262 263 260 258 257 257 256 257 259 261 262 262 262 262 265 268 272 272 268 269 267 261 265 270 272 275 280 279 276 274 272 279 282 277
255 255 258 260 263 267 269 266 262 261 261 262 263 264 265 266 262 261 261 263 264 265 267 270 269 270 272 273 273 270 267 265 266 267 273 279 281 277 275 272 280 283 277
255 257 258 258 260 262 263 264 274 278 273 271 269 271 270 267 269 271 271 270 271 270 269 266 267 268 269 272 273 273 273 272 270 269 272 273 275 274 276 273 276 275 270
254 255 256 257 258 260 262 263 263 261 265 274 280 281 282 282 280 278 277 277 276 277 278 277 274 271 269 268 269 271 271 274 275 275 272 269 270 273 275 276 276 277 274
256 257 258 259 261 263 265 267 269 271 272 271 271 275 277 278 279 281 282 281 279 278 278 279 279 277 276 273 269 267 268 268 270 273 275 275 272 271 271 274 275 274 273
258 262 264 265 267 268 269 270 272 274 276 278 279 279 278 276 276 277 279 279 279 278 277 275 274 275 276 275 274 272 268 265 266 267 270 272 272 271 271 271 274 273 277
259 262 265 268 271 274 277 279 281 282 283 285 286 287 288 288 286 284 281 279 277 275 274 273 272 271 270 270 270 270 270 268 264 262 262 265 267 268 269 270 261 275 273
265 268 269 272 276 280 285 290 292 292 293 293 293 293 293 294 296 295 291 288 284 279 275 272 270 269 269 268 267 266 266 266 265 262 258 258 261 263 264 265 265 264 267
261 270 278 285 289 290 292 295 298 301 301 301 301 301 299 297 297 296 293 288 283 280 277 274 271 269 267 266 265 264 263 263 262 262 259 255 253 256 258 260 264 265 265
261 266 276 286 293 297 299 303 306 308 309 309 309 307 305 304 301 296 291 287 284 281 279 277 274 272 269 267 266 264 261 259 259 260 261 259 253 251 252 253 258 261 265
271 276 286 295 300 301 303 305 307 308 310 312 311 311 309 305 302 298 294 291 288 285 282 279 276 274 271 269 267 264 262 260 258 257 258 259 255 249 248 249 251 257 260
277 288 297 303 306 303 308 310 310 315 318 316 315 314 311 309 305 301 298 296 295 293 290 286 281 275 270 266 264 262 261 260 259 259 259 258 257 252 248 247 246 249 255
Height
3223 3226 3230 3232 3234 3236 3237 3239 3241 3243 3244 3245 3245 3246 3248 3248 3249 3249 3249 3249 3250 3251 3252 3253 3253 3253 3254 3256 3256 3257 3257 3257 3258 3259 3258 3258 3258 3258 3257 3255 3254 3253 3251
3219 3221 3226 3230 3231 3233 3236 3237 3239 3241 3242 3242 3244 3245 3246 3246 3247 3248 3248 3248 3248 3250 3250 3251 3250 3251 3252 3252 3252 3253 3254 3253 3253 3254 3256 3255 3254 3255 3253 3252 3252 3251 3249
3216 3219 3223 3224 3226 3229 3231 3234 3236 3238 3241 3242 3243 3243 3244 3244 3245 3245 3246 3246 3246 3247 3248 3249 3248 3248 3249 3249 3250 3250 3250 3249 3249 3248 3249 3250 3250 3250 3249 3248 3248 3247 3244
3211 3215 3218 3221 3224 3227 3230 3231 3232 3234 3237 3238 3239 3240 3241 3242 3242 3243 3244 3244 3244 3244 3244 3246 3246 3247 3247 3246 3246 3246 3246 3246 3246 3245 3246 3246 3245 3245 3243 3244 3243 3241 3240
3205 3211 3212 3217 3221 3223 3225 3229 3228 3230 3232 3234 3235 3236 3237 3237 3238 3239 3240 3241 3241 3241 3241 3242 3243 3243 3243 3243 3243 3243 3243 3243 3242 3242 3242 3242 3242 3242 3240 3239 3238 3238 3237
3200 3203 3205 3208 3214 3216 3219 3222 3225 3226 3228 3229 3230 3231 3232 3233 3235 3235 3236 3236 3237 3238 3238 3239 3239 3238 3238 3239 3240 3240 3240 3239 3239 3239 3239 3239 3239 3238 3236 3235 3234 3233 3233
3196 3198 3199 3200 3205 3208 3210 3213 3217 3218 3222 3224 3225 3227 3228 3229 3230 3231 3232 3232 3232 3233 3234 3235 3235 3235 3235 3235 3235 3235 3236 3235 3235 3235 3234 3235 3234 3234 3232 3231 3229 3228 3227
3192 3195 3194 3192 3199 3201 3202 3208 3212 3212 3216 3217 3219 3220 3222 3224 3224 3225 3226 3227 3228 3228 3229 3230 3230 3230 3230 3230 3230 3230 3231 3230 3230 3229 3229 3229 3228 3228 3226 3225 3224 3223 3223
3191 3193 3192 3195 3199 3197 3201 3202 3205 3206 3209 3210 3212 3213 3215 3216 3216 3217 3219 3220 3220 3222 3223 3223 3223 3223 3224 3224 3222 3223 3223 3223 3224 3223 3222 3221 3221 3220 3219 3218 3218 3216 3216
3189 3190 3191 3194 3193 3195 3197 3198 3201 3202 3202 3205 3204 3205 3205 3207 3209 3210 3211 3212 3214 3215 3215 3216 3217 3217 3217 3218 3217 3218 3218 3219 3218 3216 3216 3216 3216 3216 3216 3214 3213 3210 3208
3187 3187 3187 3188 3190 3193 3194 3195 3195 3194 3193 3196 3196 3196 3198 3199 3200 3202 3202 3203 3205 3206 3207 3208 3208 3208 3209 3210 3209 3209 3209 3208 3209 3208 3207 3207 3208 3208 3208 3207 3205 3202 3200
3183 3184 3184 3186 3188 3189 3190 3190 3189 3190 3189 3190 3188 3188 3190 3190 3190 3191 3194 3195 3196 3197 3198 3200 3200 3200 3200 3200 3200 3200 3200 3198 3197 3198 3198 3199 3198 3199 3199 3198 3197 3195 3193
3175 3177 3179 3180 3181 3182 3183 3182 3182 3182 3183 3184 3183 3183 3184 3184 3183 3182 3182 3184 3186 3188 3188 3189 3191 3192 3191 3191 3191 3190 3190 3189 3188 3186 3187 3189 3190 3189 3188 3188 3187 3186 3184
3167 3168 3169 3170 3171 3172 3173 3173 3173 3173 3174 3175 3175 3175 3176 3177 3175 3174 3175 3175 3176 3177 3178 3179 3179 3180 3182 3182 3182 3182 3181 3180 3178 3177 3177 3177 3178 3179 3179 3179 3177 3176 3172
3160 3160 3161 3162 3163 3163 3164 3165 3165 3164 3164 3164 3164 3165 3166 3166 3166 3165 3166 3167 3167 3167 3169 3169 3169 3168 3169 3170 3170 3170 3170 3170 3169 3168 3166 3166 3166 3167 3168 3167 3166 3165 3162
3153 3154 3154 3154 3154 3155 3155 3155 3156 3156 3156 3156 3155 3155 3155 3154 3156 3156 3156 3156 3156 3157 3158 3159 3159 3159 3157 3157 3157 3157 3157 3157 3156 3155 3155 3154 3155 3155 3156 3156 3155 3154 3152
3146 3146 3146 3147 3148 3148 3149 3149 3148 3147 3148 3148 3149 3148 3147 3148 3147 3146 3145 3145 3144 3145 3145 3146 3145 3145 3146 3146 3145 3145 3145 3144 3143 3143 3142 3142 3142 3142 3142 3143 3143 3143 3142
3140 3140 3141 3141 3141 3142 3142 3143 3143 3144 3143 3141 3139 3139 3138 3137 3137 3136 3135 3135 3135 3134 3133 3132 3132 3132 3132 3131 3131 3130 3131 3133 3133 3132 3131 3131 3131 3130 3129 3129 3129 3128 3129
3133 3133 3134 3134 3135 3135 3135 3135 3134 3134 3134 3134 3134 3133 3130 3130 3128 3126 3124 3122 3122 3123 3121 3120 3118 3118 3117 3116 3116 3115 3117 3118 3119 3119 3119 3119 3119 3118 3117 3117 3116 3115 3114
3126 3127 3127 3127 3127 3127 3127 3126 3126 3125 3124 3123 3122 3120 3120 3120 3119 3117 3115 3112 3109 3107 3106 3105 3104 3103 3102 3101 3101 3100 3101 3102 3104 3106 3106 3106 3106 3106 3105 3104 3103 3102 3102
3119 3119 3118 3118 3117 3117 3117 3116 3116 3115 3114 3112 3111 3109 3107 3105 3103 3101 3100 3098 3096 3093 3090 3089 3088 3086 3085 3084 3083 3083 3083 3084 3087 3088 3089 3091 3092 3092 3092 3093 3093 3091 3092
3111 3111 3111 3110 3109 3109 3107 3106 3105 3104 3103 3101 3099 3097 3094 3092 3089 3086 3082 3079 3077 3074 3072 3069 3068 3067 3066 3065 3064 3064 3064 3065 3067 3068 3070 3072 3075 3077 3078 3079 3080 3081 3080
3106 3104 3103 3102 3101 3100 3099 3098 3096 3094 3091 3088 3085 3082 3078 3074 3070 3066 3063 3059 3056 3052 3049 3046 3044 3044 3044 3043 3042 3042 3043 3044 3045 3047 3048 3051 3055 3059 3062 3063 3065 3066 3067
3100 3099 3097 3095 3093 3091 3089 3087 3085 3082 3078 3074 3069 3064 3059 3055 3050 3045 3040 3035 3032 3029 3026 3022 3020 3018 3018 3017 3017 3017 3019 3020 3022 3025 3025 3028 3033 3039 3043 3046 3050 3051 3052
3090 3091 3089 3088 3086 3084 3082 3079 3076 3073 3069 3064 3059 3053 3047 3040 3032 3026 3020 3015 3011 3007 3004 3001 2998 2996 2994 2992 2992 2992 2993 2996 2998 3000 3003 3005 3009 3017 3021 3026 3033 3035 3038
3083 3082 3081 3080 3078 3075 3072 3069 3065 3062 3057 3052 3047 3043 3036 3027 3020 3012 3005 2999 2993 2987 2983 2979 2976 2973 2970 2969 2969 2969 2970 2972 2975 2978 2980 2982 2986 2994 3000 3005 3012 3016 3020